Location: ??????
(41.3643°N, 22.4400°E)
Time: 04:56:42
(UTC+00:00)

Daily predictions for brighter satellites

Satellite Brightness Start Highest point End
(mag) Time Altitude Azimuth Time Altitude Azimuth Time Altitude Azimuth
Helios 1A 3.3 00:05:57 47° W 00:05:57 47° W 00:09:50 10° NNW
Cosmos 405 Rocket 2.6 00:08:13 72° ESE 00:08:21 73° E 00:12:02 10° NNE
Cosmos 2058 3.4 00:07:46 44° SE 00:08:34 51° E 00:12:33 10° NNE
Cosmos 2237 Rocket 4.2 00:08:47 11° W 00:12:10 18° NW 00:16:00 10° N
NOSS 8 (F) 4.4 00:12:55 70° NNE 00:12:55 70° NNE 00:15:39 10° NNE
Cosmos 1763 Rocket 3.4 00:14:54 46° S 00:16:24 77° ESE 00:21:31 10° NNE
SeaSat 1 3.8 00:14:34 10° NE 00:18:52 29° ESE 00:20:56 22° SSE
ARGOS Delta rocket 4.1 00:14:27 10° N 00:19:57 81° WNW 00:21:59 40° SSW
Cosmos-2242 4.0 00:17:03 10° NNW 00:20:58 32° W 00:21:03 32° W
Cosmos 1242 Rocket 4.4 00:19:06 10° NNE 00:22:10 26° ENE 00:24:28 15° SE
NOSS 2-3 (D) 3.6 00:22:32 48° WSW 00:23:30 66° NW 00:28:08 10° NNE
Meteor 1-29 3.8 00:21:19 10° NNE 00:24:34 39° E 00:25:09 36° SE
Helios 1B rocket 2.3 00:22:47 10° NNE 00:26:54 85° WNW 00:27:47 54° SSW
Cosmos 2369 Rocket 2.5 00:21:28 10° NNW 00:27:11 68° ENE 00:32:51 10° SSE
IRS-1D 4.5 00:22:25 10° NNE 00:27:18 41° E 00:30:09 22° SSE
CZ-2D R/B 2.1 00:22:48 10° N 00:28:00 71° WNW 00:29:56 39° SW
ATLAS 5 CENTAUR R/B 4.4 00:21:53 27° SSW 00:29:01 37° SSE 01:17:49 10° ESE
Cosmos 1825 2.2 00:29:22 57° WSW 00:29:45 61° W 00:33:30 10° N
Resurs 1-4 Rocket 2.2 00:24:30 10° N 00:29:47 66° WNW 00:31:49 37° SW
SL-4 R/B 3.5 00:27:43 17° WNW 00:29:48 27° NNW 00:32:55 10° NE
Cosmos 1869 4.1 00:26:06 10° NNW 00:29:52 36° W 00:29:58 36° W
ADEOS Rocket 3.8 00:22:58 10° SSE 00:30:25 64° ENE 00:37:19 10° N
SL-19 R/B 4.1 00:25:36 10° NNE 00:30:51 78° ESE 00:33:16 34° S
CREW DRAGON DEMO-1 DEB 4.3 00:32:17 25° E 00:32:17 25° E 00:33:36 10° ENE
NOSS 8 (H) 4.1 00:37:33 72° WSW 00:37:46 78° NW 00:40:45 10° NNE
Cosmos 2297 4.2 00:34:34 10° NW 00:39:44 38° WSW 00:41:08 33° SW
Aureole 3 Rocket 3.7 00:37:23 10° N 00:40:52 48° E 00:44:25 15° SSE
NOSS 2-3 (C) 4.3 00:39:20 30° W 00:40:55 43° NW 00:45:27 10° NNE
Exosat Rocket 4.2 00:37:19 29° SW 00:41:07 65° WNW 00:46:44 10° NNE
Cosmos 1076 Rocket 3.9 00:39:20 29° SSE 00:41:15 57° E 00:45:24 10° NNE
Cosmos 1633 3.5 00:40:11 28° SE 00:41:29 41° E 00:44:49 10° NNE
UNK 3.8 00:40:57 39° SSW 00:42:24 57° W 00:46:57 10° NNW
Cosmos 1437 Rocket 2.6 00:40:41 10° NNW 00:44:37 76° W 00:45:46 43° S
Cosmos 2221 2.4 00:45:52 10° NNW 00:50:10 72° W 00:51:59 33° S
AQUA 4.0 00:46:42 10° N 00:51:25 61° WNW 00:53:29 32° SW
SJ 16-02 2.8 00:48:19 10° NW 00:51:20 20° W 00:51:20 20° W
Cosmos 1656 Rocket 4.0 00:47:32 10° NNW 00:53:14 70° ENE 00:58:51 10° SSE
Cosmos 1898 Rocket 3.4 00:48:23 10° NNW 00:53:37 74° WSW 00:57:30 18° S
ADEOS II 2.0 00:48:22 10° NNE 00:53:39 87° WNW 00:56:36 27° SSW
Cosmos 2151 3.8 00:53:02 18° SSE 00:55:49 45° E 00:59:51 10° NNE
MINOTAUR 4 R/B 4.0 00:57:30 40° SSW 00:58:33 61° W 01:02:03 10° NNW
Cosmos 841 Rocket 3.4 00:55:55 28° SSW 00:58:43 85° ESE 01:03:53 10° NNE
Cosmos 990 Rocket 4.2 00:54:53 10° NNW 00:59:54 50° WSW 01:02:41 25° SSW
ATLAS 5 CENTAUR R/B 3.1 00:58:18 16° SSE 01:00:20 24° ESE 01:03:41 10° ENE
Cosmos 1606 2.6 00:57:22 10° N 01:01:13 89° WSW 01:03:20 25° S
Cosmos 1937 Rocket 3.5 00:58:05 10° NNW 01:03:26 84° WSW 01:08:44 10° SSE
EXPRESS MD2 4.5 00:58:27 21° SW 01:04:38 79° SSE 01:09:13 10° ENE
OE (NEXTSAT) 4.3 01:04:07 41° SW 01:05:06 66° SSE 01:08:31 10° ENE
USA 305 4.4 01:05:41 18° SSE 01:07:37 25° SE 01:11:07 10° ENE
Cosmos 1570 Rocket 4.2 01:05:10 21° S 01:08:38 70° ESE 01:13:51 10° NNE
Cosmos 1437 2.7 01:09:58 10° N 01:12:45 64° E 01:14:24 21° SSE
Cosmos 540 Rocket 3.6 01:11:08 25° SW 01:14:00 59° WNW 01:19:04 10° NNE
USA 229 DEB 4.2 01:09:31 18° WSW 01:14:04 47° NW 01:20:39 10° NNE
USA 229 4.2 01:09:35 18° WSW 01:14:07 48° NW 01:20:42 10° NNE
NOSS 2-2 (E) 3.4 01:12:43 27° S 01:14:18 53° ESE 01:17:48 10° NE
Meteor 1-28 Rocket 3.1 01:11:54 20° S 01:14:24 76° W 01:18:12 10° NNW
Cosmos 2208 Rocket 4.3 01:11:58 18° S 01:15:59 66° ESE 01:21:23 10° NNE
Cosmos 1814 Rocket 4.0 01:12:42 21° SSW 01:16:17 82° ESE 01:21:30 10° NNE
CZ-4C R/B 3.4 01:13:36 10° SSE 01:17:06 65° ENE 01:20:33 10° N
BREEZE-M DEB (TANK) 4.3 01:15:36 10° NW 01:17:17 17° N 01:18:59 10° NE
IDEFIX/ARIANE 42P 2.6 01:13:41 10° NNE 01:18:58 84° ESE 01:23:08 16° SSW
Cosmos 1943 3.6 01:20:06 21° SW 01:23:43 49° WNW 01:29:12 10° NNE
USA 290 2.6 01:23:26 21° S 01:25:20 59° ESE 01:28:31 10° NNE
SL-16 R/B 3.5 01:22:25 19° SW 01:25:21 28° W 01:30:34 10° NW
Cosmos 1603 4.3 01:22:06 20° SW 01:25:50 46° WNW 01:31:18 10° NNE
NOSS 2-2 (C) 3.4 01:24:29 22° SSW 01:26:29 54° ESE 01:29:57 10° NE
Cosmos 1933 3.8 01:22:39 10° N 01:26:43 64° E 01:30:46 10° SSE
ASTEX 1 3.9 01:22:01 10° SSE 01:26:54 61° E 01:31:48 10° N
Cosmos 1553 Rocket 4.4 01:20:36 10° N 01:26:55 65° E 01:33:05 10° SSE
USA 306 3.8 01:26:45 18° S 01:29:24 37° SE 01:33:19 10° ENE
X-37B 1.4 01:28:10 14° W 01:30:43 49° N 01:33:49 10° ENE
Cosmos 2292 Rocket 3.0 01:28:07 15° S 01:30:51 69° E 01:33:53 10° NNE
ARIANE 5 R/B 2.9 01:27:54 10° NNE 01:32:51 59° ESE 01:37:46 10° S
NOSS 3-1 (A) 4.4 01:29:33 13° WSW 01:33:57 35° NW 01:39:40 10° NNE
DELTA 2 R/B (1) 3.8 01:34:40 17° SW 01:38:47 54° SSE 01:44:12 10° E
Cosmos 1151 Rocket 4.1 01:36:54 10° N 01:41:01 46° E 01:45:06 10° SSE
IRIDIUM 106 4.3 01:36:46 10° N 01:42:00 85° W 01:47:13 10° S
Cosmos 2026 Rocket 4.3 01:37:28 15° SSW 01:42:29 52° WNW 01:48:39 10° N
Cosmos 1943 Rocket 3.8 01:40:29 10° WNW 01:43:02 13° W 01:44:18 12° WSW
IRS-P3 4.1 01:37:42 10° NNE 01:43:04 87° WNW 01:48:22 10° SSW
SeaSat 1 3.3 01:51:52 10° N 01:56:24 37° NW 02:00:42 11° WSW
Cosmos 1242 Rocket 4.3 01:54:26 10° NW 01:56:45 16° W 01:58:23 13° WSW
Cosmos 372 Rocket 4.3 01:52:16 10° NNW 01:57:18 48° WSW 02:02:18 10° S
Spot 4 Rocket 4.5 01:53:29 10° NNE 01:58:35 63° ESE 02:03:39 10° S
USA 281 3.5 01:52:44 10° S 01:59:00 47° WSW 02:05:20 10° NW
GPS 2-04 Rocket1 4.2 01:58:50 12° SSW 02:01:20 20° SSE 02:04:05 10° ESE
Cosmos 921 Rocket 4.3 01:58:13 12° WSW 02:01:23 25° WNW 02:04:54 10° N
Cosmos 1812 4.2 01:58:50 10° N 02:02:28 39° ENE 02:06:04 10° SSE
MSX 4.1 01:58:12 10° N 02:03:50 57° WNW 02:09:25 10° SSW
Cosmos 1271 Rocket 3.5 02:01:46 10° N 02:05:27 54° ENE 02:09:06 10° SSE
CZ-4B R/B 3.6 02:00:55 10° N 02:06:11 70° WNW 02:11:22 10° SSW
Cosmos 1862 4.2 02:04:49 10° S 02:08:42 51° E 02:12:39 10° NNE
CZ-2C R/B 2.9 02:05:11 10° NNE 02:10:12 65° ESE 02:15:01 10° S
SL-4 R/B 4.4 02:08:02 10° NW 02:10:13 15° N 02:12:22 10° NE
USA 307 2.9 02:06:17 11° SW 02:10:24 78° SE 02:14:39 10° NE
Cosmos 2369 Rocket 3.7 02:07:02 10° WNW 02:10:33 17° W 02:14:04 10° SW
Cosmos 1655 Rocket 4.0 02:07:26 10° S 02:13:40 84° W 02:19:55 10° N
Meteor 2-21 Rocket 4.5 02:07:41 10° S 02:13:47 82° W 02:19:59 10° N
ADEOS Rocket 4.5 02:10:08 10° SSW 02:16:10 26° W 02:21:55 10° NW
Cosmos 2266 Rocket 4.0 02:10:16 10° S 02:16:27 89° E 02:22:34 10° N
ALOS 3.4 02:12:49 10° NNE 02:17:16 43° E 02:21:43 10° S
Meteor 2-3 Rocket 4.4 02:18:47 10° SW 02:23:59 38° WNW 02:29:10 10° N
NOSS 2-2 (D) 4.1 02:21:34 10° WSW 02:24:41 32° NW 02:28:00 10° NNE
USA 308 3.0 02:21:40 10° SW 02:25:54 80° NW 02:30:10 10° NE
PAYLOAD A 4.0 02:21:50 10° N 02:26:47 82° WNW 02:31:54 10° SSW
